Tegucigalpa, Honduras

8:20 PM CST en Noviembre 16, 2018 (GMT -0600)
Toncontin International

Tiempo Historia de MHTG - Septiembre, 2018

Change the Weather History Date:

Viernes, Septiembre 14, 2018

  Actual Average Record
Temperature  
Temperatura media 72 ° F -  
Temperatura máxima 85 ° F 80 ° F 86 ° F (1996)
Temperatura mínima 58 ° F 62 ° F 32 ° F (1999)
Cooling Degree Days 6    
Growing Degree Days 22 (Base 50)    
Moisture  
Punto de rocío 60 ° F    
Average Humidity 65    
Maximum Humidity 100    
Minimum Humidity 33    
Precipitación  
Precipitación 0.00 pul 0.19 pul - ()
Presión al nivel del mar  
Presión al nivel del mar 30.00 pul    
Viento  
Velocidad del viento 4 mph ()    
Velocidad máxima del viento 14 mph    
Max Gust Speed -    
Visibilidad 6.2 Millas    
Eventos      
Averages and records for this station are not official NWS values.
T = Trace of Precipitation, MM = Missing Value Source: Averaged Metar Reports

Daily Weather History Graph

Daily Weather History Graph

Search for Another Location

Airport or City:

Astronomía

Sep. 14, 2018 Salida Puesta
Hora real 5:37 AM CST 5:50 PM CST
Crepúsculo civil 5:16 AM CST 6:12 PM CST
Crepúsculo náutico 4:51 AM CST 6:37 PM CST
Crepúsculo astronómico 4:26 AM CST 7:02 PM CST
Luna 10:07 AM CST (9/14) 9:58 PM CST (9/14)
Horas de luz 12h 55m
Horas de luz
12h 13m
Creciente, 29% of the Moon is Illuminated
Sep 14
Creciente
Sep 16
Cuarto creciente
Sep 24
Luna llena
Oct 2
Cuarto menguante
Oct 8
Nueva

Hourly Weather History & Observations

Hora (CST) Temp. Índice de calor Punto de rocío Humedad Presión Visibilidad Wind Dir Velocidad del viento Velocidad de ráfagas Precip Eventos Condiciones
12:00 AM 64 ° F - 59 ° F 80% 30.00 pul 6 mi Sur 4.6 mph - -   Bruma
12:00 AM 64.4 ° F - 59.0 ° F 83% 30.06 pul 6.2 mi Sur 6.9 mph - N/A   Parcialmente nublado
1:00 AM 60.8 ° F - 59.0 ° F 94% 30.06 pul 6.2 mi Este 2.3 mph - N/A   Parcialmente nublado
2:00 AM 62.6 ° F - 59.0 ° F 88% 30.06 pul 6.2 mi Sur 4.6 mph - N/A   Parcialmente nublado
3:00 AM 61 ° F - 58 ° F 87% 30.00 pul 6 mi SSE 2.3 mph - -   Bruma
3:00 AM 60.8 ° F - 59.0 ° F 94% 30.04 pul 6.2 mi SSE 2.3 mph - N/A   Parcialmente nublado
4:00 AM 60.8 ° F - 59.0 ° F 94% 30.04 pul 6.2 mi Sin viento Sin viento - N/A   Parcialmente nublado
5:00 AM - - - N/A% 30.04 pul 6.2 mi Sin viento Sin viento - N/A   Parcialmente nublado
6:00 AM 66 ° F - 62 ° F 83% 29.97 pul 6 mi OSO 2.3 mph - -   Bruma
6:00 AM 59.0 ° F - 59.0 ° F 100% 30.06 pul 6.2 mi Sin viento Sin viento - N/A   Muy nublado
7:00 AM 62.6 ° F - 60.8 ° F 94% 30.06 pul 6.2 mi Sin viento Sin viento - N/A   Nubes dispersas
8:00 AM 69.8 ° F - 62.6 ° F 78% 30.09 pul 6.2 mi Sin viento Sin viento - N/A   Nubes dispersas
9:00 AM 76 ° F - 63 ° F 56% 29.94 pul 6 mi SSE 4.6 mph - -   Bruma
9:00 AM 75.2 ° F - 62.6 ° F 65% 30.09 pul 6.2 mi SSE 4.6 mph - N/A   Nubes dispersas
10:00 AM 78.8 ° F - 60.8 ° F 54% 30.06 pul 6.2 mi SSE 13.8 mph - N/A   Nubes dispersas
11:00 AM 82.4 ° F 82.0 ° F 57.2 ° F 42% 30.04 pul 6.2 mi NE 4.6 mph - N/A   Nubes dispersas
12:00 PM 84 ° F - 60 ° F 33% 29.83 pul 7 mi ENE 11.5 mph - -   Bruma
12:00 PM 84.2 ° F 83.8 ° F 59.0 ° F 42% 30.04 pul 6.2 mi ENE 11.5 mph - N/A   Nubes dispersas
1:00 PM 84.2 ° F 83.5 ° F 57.2 ° F 40% 30.01 pul 6.2 mi SSE 11.5 mph - N/A   Nubes dispersas
2:00 PM 86.0 ° F 85.4 ° F 59.0 ° F 40% 29.98 pul 6.2 mi Este 9.2 mph - N/A   Nubes dispersas
3:00 PM 82 ° F - 58 ° F 33% 29.77 pul 7 mi ESE 4.6 mph - -   Bruma
3:00 PM 82.4 ° F 82.0 ° F 57.2 ° F 42% 29.95 pul 6.2 mi ESE 4.6 mph - N/A   Nubes dispersas
4:00 PM 82.4 ° F 82.0 ° F 57.2 ° F 42% 29.95 pul 6.2 mi SE 2.3 mph - N/A   Nubes dispersas
5:00 PM 82.4 ° F 82.0 ° F 57.2 ° F 42% 29.95 pul 6.2 mi Este 9.2 mph - N/A   Nubes dispersas
6:00 PM 77 ° F - 59 ° F 43% 29.83 pul 6 mi SSE 6.9 mph - -   Bruma
6:00 PM 77.0 ° F - 59.0 ° F 54% 29.98 pul 6.2 mi SSE 6.9 mph - N/A   Nubes dispersas
7:00 PM 75.2 ° F - 60.8 ° F 61% 30.01 pul 6.2 mi SSE 4.6 mph - N/A   Parcialmente nublado
8:00 PM 73.4 ° F - 60.8 ° F 65% 30.01 pul 6.2 mi SSE 4.6 mph - N/A   Parcialmente nublado
9:00 PM 72 ° F - 61 ° F 61% 29.92 pul 6 mi Sur 5.8 mph - -   Parcialmente nublado
9:00 PM 71.6 ° F - 60.8 ° F 69% 30.04 pul 6.2 mi Sur 5.8 mph - N/A   Parcialmente nublado
10:00 PM 71.6 ° F - 62.6 ° F 73% 30.06 pul 6.2 mi SSE 4.6 mph - N/A   Parcialmente nublado
11:00 PM 69.8 ° F - 62.6 ° F 78% 30.04 pul 6.2 mi OSO 4.6 mph - N/A   Parcialmente nublado